| time (UTC) | temp F | wind direction | speed MPH | gust MPH | rain 1hr in | rain 24hr in | rain mn in | humidity % | barometer mb |
| 20260510043121 | 85 | 356 | 4.0 | 6.0 | 0.00 | 0.00 | 0.00 | 13 | 1006.4 |
| 20260510042121 | 83 | 358 | 3.0 | 5.0 | 0.00 | 0.00 | 0.00 | 13 | 1006.4 |
| 20260510041121 | 81 | 360 | 2.0 | 4.0 | 0.00 | 0.00 | 0.00 | 15 | 1006.4 |
| 20260510040121 | 82 | 360 | 2.0 | 3.0 | 0.00 | 0.00 | 0.00 | 15 | 1006.1 |
| 20260510035121 | 83 | 360 | 2.0 | 3.0 | 0.00 | 0.00 | 0.00 | 15 | 1006.0 |
| 20260510034121 | 85 | 360 | 2.0 | 3.0 | 0.00 | 0.00 | 0.00 | 14 | 1006.0 |
| 20260510033121 | 86 | 360 | 2.0 | 3.0 | 0.00 | 0.00 | 0.00 | 14 | 1005.9 |
| 20260510032121 | 87 | 360 | 1.0 | 3.0 | 0.00 | 0.00 | 0.00 | 13 | 1005.8 |
| 20260510031121 | 90 | 360 | 2.0 | 3.0 | 0.00 | 0.00 | 0.00 | 12 | 1005.6 |
| 20260510030121 | 92 | 348 | 3.0 | 5.0 | 0.00 | 0.00 | 0.00 | 11 | 1005.5 |
| 20260510025121 | 93 | 358 | 3.0 | 6.0 | 0.00 | 0.00 | 0.00 | 11 | 1005.4 |
| 20260510024121 | 94 | 360 | 4.0 | 6.0 | 0.00 | 0.00 | 0.00 | 10 | 1005.2 |
| 20260510023121 | 95 | 359 | 5.0 | 10.0 | 0.00 | 0.00 | 0.00 | 10 | 1005.1 |
| 20260510022121 | 95 | 357 | 6.0 | 10.0 | 0.00 | 0.00 | 0.00 | 10 | 1005.0 |
| 20260510021121 | 96 | 360 | 5.0 | 9.0 | 0.00 | 0.00 | 0.00 | 10 | 1005.0 |
| 20260510020121 | 96 | 359 | 8.0 | 13.0 | 0.00 | 0.00 | 0.00 | 10 | 1005.1 |
| 20260510015122 | 97 | 357 | 8.0 | 13.0 | 0.00 | 0.00 | 0.00 | 9 | 1005.1 |
| 20260510014121 | 97 | 360 | 7.0 | 13.0 | 0.00 | 0.00 | 0.00 | 9 | 1004.7 |
| 20260510013142 | 98 | 359 | 9.0 | 14.0 | 0.00 | 0.00 | 0.00 | 9 | 1004.8 |
| 20260510012121 | 98 | 352 | 7.0 | 13.0 | 0.00 | 0.00 | 0.00 | 9 | 1004.9 |
| 20260510011121 | 98 | 360 | 9.0 | 15.0 | 0.00 | 0.00 | 0.00 | 9 | 1005.0 |
| 20260510010121 | 99 | 358 | 6.0 | 12.0 | 0.00 | 0.00 | 0.00 | 9 | 1005.0 |
| 20260510005121 | 99 | 360 | 10.0 | 10.0 | 0.00 | 0.00 | 0.00 | 9 | 1005.1 |
| 20260510004121 | 99 | 359 | 8.0 | 13.0 | 0.00 | 0.00 | 0.00 | 9 | 1005.0 |
| 20260510003121 | 99 | 357 | 8.0 | 13.0 | 0.00 | 0.00 | 0.00 | 9 | 1005.2 |
| 20260510002121 | 100 | 359 | 9.0 | 16.0 | 0.00 | 0.00 | 0.00 | 8 | 1005.2 |
| 20260510001121 | 100 | 359 | 8.0 | 17.0 | 0.00 | 0.00 | 0.00 | 8 | 1005.1 |
| 20260510000142 | 100 | 359 | 6.0 | 10.0 | 0.00 | 0.00 | 0.00 | 8 | 1005.2 |
| 20260509235142 | 100 | 360 | 8.0 | 18.0 | 0.00 | 0.00 | 0.00 | 8 | 1005.2 |
| 20260509234121 | 100 | 359 | 7.0 | 11.0 | 0.00 | 0.00 | 0.00 | 8 | 1005.4 |
| 20260509233121 | 100 | 360 | 8.0 | 16.0 | 0.00 | 0.00 | 0.00 | 8 | 1005.3 |
| 20260509232121 | 100 | 356 | 9.0 | 14.0 | 0.00 | 0.00 | 0.00 | 8 | 1005.4 |
| 20260509231121 | 100 | 358 | 10.0 | 14.0 | 0.00 | 0.00 | 0.00 | 8 | 1005.5 |
| 20260509230121 | 100 | 357 | 10.0 | 16.0 | 0.00 | 0.00 | 0.00 | 8 | 1005.5 |
| 20260509225121 | 100 | 359 | 11.0 | 16.0 | 0.00 | 0.00 | 0.00 | 8 | 1005.9 |
| 20260509224121 | 100 | 359 | 7.0 | 17.0 | 0.00 | 0.00 | 0.00 | 9 | 1006.0 |
| 20260509223142 | 100 | 360 | 9.0 | 15.0 | 0.00 | 0.00 | 0.00 | 9 | 1006.1 |
| 20260509222121 | 101 | 360 | 7.0 | 13.0 | 0.00 | 0.00 | 0.00 | 9 | 1006.2 |
| 20260509221121 | 100 | 360 | 9.0 | 15.0 | 0.00 | 0.00 | 0.00 | 9 | 1006.4 |
| 20260509220122 | 100 | 359 | 9.0 | 13.0 | 0.00 | 0.00 | 0.00 | 9 | 1006.3 |
| 20260509215121 | 100 | 358 | 7.0 | 13.0 | 0.00 | 0.00 | 0.00 | 9 | 1006.5 |
| 20260509214121 | 100 | 359 | 11.0 | 18.0 | 0.00 | 0.00 | 0.00 | 9 | 1006.7 |
| 20260509213121 | 100 | 359 | 10.0 | 14.0 | 0.00 | 0.00 | 0.00 | 9 | 1007.0 |
| 20260509212121 | 99 | 359 | 7.0 | 14.0 | 0.00 | 0.00 | 0.00 | 10 | 1007.0 |
| 20260509211121 | 99 | 358 | 7.0 | 13.0 | 0.00 | 0.00 | 0.00 | 9 | 1007.3 |
| 20260509210122 | 99 | 360 | 10.0 | 16.0 | 0.00 | 0.00 | 0.00 | 9 | 1007.6 |
| 20260509205142 | 99 | 356 | 8.0 | 12.0 | 0.00 | 0.00 | 0.00 | 9 | 1007.6 |
| 20260509204121 | 98 | 359 | 8.0 | 13.0 | 0.00 | 0.00 | 0.00 | 10 | 1007.9 |
| 20260509203121 | 99 | 360 | 9.0 | 14.0 | 0.00 | 0.00 | 0.00 | 12 | 1007.9 |
| 20260509202121 | 97 | 359 | 5.0 | 11.0 | 0.00 | 0.00 | 0.00 | 12 | 1008.1 |
| 20260509201121 | 97 | 359 | 7.0 | 14.0 | 0.00 | 0.00 | 0.00 | 12 | 1008.3 |
| 20260509200122 | 97 | 357 | 7.0 | 13.0 | 0.00 | 0.00 | 0.00 | 12 | 1008.4 |
| 20260509195121 | 97 | 360 | 6.0 | 11.0 | 0.00 | 0.00 | 0.00 | 12 | 1008.6 |
| 20260509194121 | 97 | 358 | 4.0 | 8.0 | 0.00 | 0.00 | 0.00 | 11 | 1008.5 |
| 20260509193121 | 96 | 359 | 6.0 | 9.0 | 0.00 | 0.00 | 0.00 | 12 | 1008.7 |
| 20260509192121 | 95 | 359 | 6.0 | 10.0 | 0.00 | 0.00 | 0.00 | 12 | 1008.8 |
| 20260509191143 | 95 | 2 | 3.0 | 9.0 | 0.00 | 0.00 | 0.00 | 12 | 1008.9 |
| 20260509190121 | 95 | 359 | 5.0 | 10.0 | 0.00 | 0.00 | 0.00 | 13 | 1008.9 |
| 20260509185121 | 94 | 357 | 5.0 | 9.0 | 0.00 | 0.00 | 0.00 | 12 | 1009.2 |
| 20260509184121 | 94 | 355 | 4.0 | 8.0 | 0.00 | 0.00 | 0.00 | 12 | 1009.3 |
| 20260509183121 | 94 | 4 | 2.0 | 6.0 | 0.00 | 0.00 | 0.00 | 13 | 1009.5 |
| 20260509182122 | 92 | 357 | 4.0 | 8.0 | 0.00 | 0.00 | 0.00 | 14 | 1009.7 |
| 20260509181121 | 92 | 360 | 4.0 | 9.0 | 0.00 | 0.00 | 0.00 | 13 | 1009.8 |
| 20260509180121 | 91 | 1 | 1.0 | 3.0 | 0.00 | 0.00 | 0.00 | 14 | 1010.0 |
| 20260509175121 | 91 | 0 | 5.0 | 9.0 | 0.00 | 0.00 | 0.00 | 14 | 1010.1 |
| 20260509174143 | 91 | 358 | 6.0 | 13.0 | 0.00 | 0.00 | 0.00 | 14 | 1010.1 |
| 20260509173121 | 90 | 16 | 3.0 | 9.0 | 0.00 | 0.00 | 0.00 | 15 | 1010.0 |
| 20260509172121 | 91 | 360 | 4.0 | 10.0 | 0.00 | 0.00 | 0.00 | 15 | 1010.2 |
| 20260509171121 | 90 | 56 | 4.0 | 9.0 | 0.00 | 0.00 | 0.00 | 15 | 1010.2 |
| 20260509170121 | 90 | 3 | 5.0 | 9.0 | 0.00 | 0.00 | 0.00 | 15 | 1010.3 |
| 20260509165121 | 90 | 13 | 5.0 | 9.0 | 0.00 | 0.00 | 0.00 | 15 | 1010.2 |
| 20260509164121 | 89 | 6 | 4.0 | 11.0 | 0.00 | 0.00 | 0.00 | 15 | 1010.2 |
| 20260509163121 | 89 | 3 | 3.0 | 8.0 | 0.00 | 0.00 | 0.00 | 16 | 1010.2 |
| 20260509162121 | 88 | 3 | 5.0 | 10.0 | 0.00 | 0.00 | 0.00 | 16 | 1010.2 |
| 20260509161121 | 88 | 10 | 4.0 | 8.0 | 0.00 | 0.00 | 0.00 | 17 | 1010.1 |
| 20260509160121 | 87 | 4 | 5.0 | 10.0 | 0.00 | 0.00 | 0.00 | 17 | 1010.1 |
| 20260509155121 | 87 | 9 | 5.0 | 10.0 | 0.00 | 0.00 | 0.00 | 18 | 1010.2 |
| 20260509154122 | 86 | 21 | 6.0 | 10.0 | 0.00 | 0.00 | 0.00 | 18 | 1010.2 |
| 20260509153142 | 86 | 13 | 5.0 | 8.0 | 0.00 | 0.00 | 0.00 | 19 | 1010.2 |
| 20260509152121 | 85 | 9 | 5.0 | 9.0 | 0.00 | 0.00 | 0.00 | 19 | 1010.2 |
| 20260509151143 | 84 | 6 | 6.0 | 11.0 | 0.00 | 0.00 | 0.00 | 20 | 1010.1 |
| 20260509150121 | 83 | 21 | 4.0 | 8.0 | 0.00 | 0.00 | 0.00 | 20 | 1010.2 |
| 20260509145121 | 83 | 3 | 5.0 | 10.0 | 0.00 | 0.00 | 0.00 | 21 | 1010.2 |
| 20260509144121 | 82 | 12 | 5.0 | 11.0 | 0.00 | 0.00 | 0.00 | 21 | 1010.2 |
| 20260509143143 | 81 | 13 | 4.0 | 8.0 | 0.00 | 0.00 | 0.00 | 21 | 1010.1 |
| 20260509142121 | 81 | 0 | 2.0 | 5.0 | 0.00 | 0.00 | 0.00 | 22 | 1010.1 |
| 20260509141143 | 80 | 6 | 1.0 | 2.0 | 0.00 | 0.00 | 0.00 | 23 | 1010.1 |
| 20260509140121 | 79 | 21 | 2.0 | 4.0 | 0.00 | 0.00 | 0.00 | 23 | 1010.0 |
| 20260509135121 | 77 | 3 | 2.0 | 4.0 | 0.00 | 0.00 | 0.00 | 24 | 1009.8 |
| 20260509134123 | 76 | 360 | 1.0 | 2.0 | 0.00 | 0.00 | 0.00 | 25 | 1009.8 |
| 20260509133121 | 74 | 24 | 1.0 | 2.0 | 0.00 | 0.00 | 0.00 | 25 | 1009.7 |
| 20260509132121 | 72 | 11 | 2.0 | 3.0 | 0.00 | 0.00 | 0.00 | 26 | 1009.6 |
| 20260509131122 | 71 | 36 | 3.0 | 3.0 | 0.00 | 0.00 | 0.00 | 26 | 1009.5 |
| 20260509130121 | 70 | 12 | 3.0 | 5.0 | 0.00 | 0.00 | 0.00 | 26 | 1009.4 |
| 20260509125122 | 69 | 4 | 2.0 | 3.0 | 0.00 | 0.00 | 0.00 | 26 | 1009.3 |
| 20260509124121 | 69 | 15 | 3.0 | 4.0 | 0.00 | 0.00 | 0.00 | 26 | 1009.2 |
| 20260509123122 | 68 | 52 | 4.0 | 5.0 | 0.00 | 0.00 | 0.00 | 28 | 1008.9 |
| 20260509122122 | 67 | 12 | 2.0 | 4.0 | 0.00 | 0.00 | 0.00 | 29 | 1008.7 |
| 20260509121122 | 67 | 360 | 2.0 | 3.0 | 0.00 | 0.00 | 0.00 | 28 | 1008.7 |
| 20260509120121 | 67 | 360 | 2.0 | 3.0 | 0.00 | 0.00 | 0.00 | 28 | 1008.6 |
| 20260509115121 | 67 | 360 | 2.0 | 3.0 | 0.00 | 0.00 | 0.00 | 29 | 1008.6 |
| 20260509114121 | 67 | 360 | 2.0 | 4.0 | 0.00 | 0.00 | 0.00 | 29 | 1008.5 |
| 20260509113122 | 66 | 2 | 2.0 | 3.0 | 0.00 | 0.00 | 0.00 | 29 | 1008.4 |
| 20260509112121 | 67 | 360 | 0.0 | 1.0 | 0.00 | 0.00 | 0.00 | 28 | 1008.4 |
| 20260509111121 | 67 | 1 | 1.0 | 3.0 | 0.00 | 0.00 | 0.00 | 28 | 1008.3 |
| 20260509110121 | 67 | 22 | 2.0 | 3.0 | 0.00 | 0.00 | 0.00 | 27 | 1008.3 |
| 20260509105122 | 67 | 18 | 2.0 | 3.0 | 0.00 | 0.00 | 0.00 | 27 | 1008.3 |
| 20260509104121 | 67 | 31 | 2.0 | 4.0 | 0.00 | 0.00 | 0.00 | 26 | 1008.3 |
| 20260509103122 | 67 | 2 | 3.0 | 4.0 | 0.00 | 0.00 | 0.00 | 27 | 1008.3 |
| 20260509102143 | 67 | 360 | 2.0 | 3.0 | 0.00 | 0.00 | 0.00 | 27 | 1008.1 |
| 20260509101122 | 68 | 360 | 1.0 | 3.0 | 0.00 | 0.00 | 0.00 | 27 | 1008.2 |
| 20260509100121 | 68 | 28 | 2.0 | 4.0 | 0.00 | 0.00 | 0.00 | 28 | 1008.2 |
| 20260509095142 | 67 | 49 | 1.0 | 2.0 | 0.00 | 0.00 | 0.00 | 28 | 1008.2 |
| 20260509094143 | 67 | 10 | 2.0 | 2.0 | 0.00 | 0.00 | 0.00 | 28 | 1008.2 |
| 20260509093142 | 68 | 2 | 1.0 | 2.0 | 0.00 | 0.00 | 0.00 | 28 | 1008.4 |
| 20260509092122 | 69 | 9 | 2.0 | 2.0 | 0.00 | 0.00 | 0.00 | 27 | 1008.3 |
| 20260509091121 | 70 | 8 | 2.0 | 4.0 | 0.00 | 0.00 | 0.00 | 27 | 1008.4 |
| 20260509090123 | 69 | 67 | 1.0 | 2.0 | 0.00 | 0.00 | 0.00 | 26 | 1008.3 |
| 20260509085122 | 70 | 67 | 1.0 | 2.0 | 0.00 | 0.00 | 0.00 | 25 | 1008.3 |
| 20260509084123 | 70 | 68 | 2.0 | 3.0 | 0.00 | 0.00 | 0.00 | 26 | 1008.2 |
| 20260509083122 | 70 | 67 | 2.0 | 3.0 | 0.00 | 0.00 | 0.00 | 25 | 1008.2 |
| 20260509082121 | 71 | 64 | 2.0 | 3.0 | 0.00 | 0.00 | 0.00 | 24 | 1008.2 |
| 20260509081121 | 71 | 17 | 3.0 | 4.0 | 0.00 | 0.00 | 0.00 | 25 | 1008.1 |
| 20260509080122 | 72 | 360 | 1.0 | 2.0 | 0.00 | 0.00 | 0.00 | 25 | 1008.1 |
| 20260509075121 | 73 | 59 | 3.0 | 4.0 | 0.00 | 0.00 | 0.00 | 25 | 1008.1 |
| 20260509074122 | 74 | 360 | 3.0 | 4.0 | 0.00 | 0.00 | 0.00 | 24 | 1008.2 |
| 20260509073122 | 74 | 360 | 3.0 | 4.0 | 0.00 | 0.00 | 0.00 | 24 | 1008.2 |
| 20260509072122 | 75 | 360 | 3.0 | 4.0 | 0.00 | 0.00 | 0.00 | 23 | 1008.2 |
| 20260509071122 | 76 | 15 | 3.0 | 4.0 | 0.00 | 0.00 | 0.00 | 23 | 1008.3 |
| 20260509070121 | 77 | 3 | 2.0 | 4.0 | 0.00 | 0.00 | 0.00 | 22 | 1008.2 |
| 20260509065121 | 77 | 1 | 2.0 | 4.0 | 0.00 | 0.00 | 0.00 | 22 | 1008.1 |
| 20260509064123 | 76 | 1 | 2.0 | 5.0 | 0.00 | 0.00 | 0.00 | 22 | 1008.1 |
| 20260509063123 | 76 | 8 | 4.0 | 6.0 | 0.00 | 0.00 | 0.00 | 22 | 1008.1 |
| 20260509062122 | 75 | 38 | 3.0 | 4.0 | 0.00 | 0.00 | 0.00 | 22 | 1008.0 |
| 20260509061143 | 76 | 0 | 3.0 | 4.0 | 0.00 | 0.00 | 0.00 | 22 | 1008.1 |
| 20260509060122 | 76 | 3 | 4.0 | 5.0 | 0.00 | 0.00 | 0.00 | 21 | 1008.0 |
| 20260509055122 | 76 | 0 | 3.0 | 4.0 | 0.00 | 0.00 | 0.00 | 22 | 1008.0 |
| 20260509054121 | 75 | 21 | 3.0 | 4.0 | 0.00 | 0.00 | 0.00 | 21 | 1007.9 |
| 20260509053122 | 76 | 28 | 2.0 | 3.0 | 0.00 | 0.00 | 0.00 | 21 | 1008.0 |
| 20260509052122 | 76 | 16 | 2.0 | 3.0 | 0.00 | 0.00 | 0.00 | 22 | 1007.9 |
| 20260509051122 | 77 | 7 | 3.0 | 4.0 | 0.00 | 0.00 | 0.00 | 21 | 1008.0 |
| 20260509050122 | 77 | 1 | 3.0 | 4.0 | 0.00 | 0.00 | 0.00 | 20 | 1007.9 |
| 20260509045122 | 78 | 2 | 2.0 | 3.0 | 0.00 | 0.00 | 0.00 | 20 | 1007.9 |
| 20260509044122 | 78 | 22 | 1.0 | 2.0 | 0.00 | 0.00 | 0.00 | 21 | 1007.7 |